Regional Weather Roundup
Issued by NWS

Home | Current Version | Previous Version | Graphics & Text | Print | Product List | Glossary On
Versions: 1 2 3 4 5 6 7 8 9 10 11 12 13 14 15 16 17 18 19 20 21 22 23 24 25 26 27 28 29 30 31 32 33 34 35 36 37 38 39 40 41 42 43 44 45 46 47 48 49 50
037
ASUS45 KBOU 280107
RWRCO

WEATHER ROUNDUP FOR COLORADO
NATIONAL WEATHER SERVICE DENVER/BOULDER CO
600 PM MST MON FEB 27 2017

NOTE: "FAIR" INDICATES FEW OR NO CLOUDS BELOW 12000 FEET WITH NO
SIGNIFICANT WEATHER AND/OR OBSTRUCTIONS TO VISIBILITY.

COZ001>005-013-030-031-280200-
...NORTHWEST COLORADO...

CITY           SKY/WX    TMP DP  RH WIND       PRES   REMARKS
CRAIG          HVY SNOW  24  20  84 W5        29.69R VSB 1/4 WCI  18
HAYDEN         CLOUDY    21  18  86 W10       29.66R VSB 3/4 WCI  10
MEEKER         CLOUDY    36  25  64 SW12      29.64R
MOUNT WERNER   NOT AVBL
STEAMBOAT SPGS CLOUDY    24  23  94 W6        29.64R VSB 1   WCI  17
WALDEN         NOT AVBL
$$

COZ006>008-011-280200-
...WEST CENTRAL VALLEYS...

CITY           SKY/WX    TMP DP  RH WIND       PRES   REMARKS
GRAND JUNCTION FAIR      48  18  30 SW23G37   29.66R
MONTROSE       FAIR      43  21  41 S12       29.74R
EAGLE          CLOUDY    37  19  48 SW17G25   29.65R
RIFLE          CLOUDY    45  17  32 SW18      29.64R
DELTA          MOCLDY    47  20  33 SW14      29.71R
NUCLA          FAIR      43  23  45 SW18G31   29.77R
$$

COZ017>023-064>068-280200-
...SOUTHWEST COLORADO...

CITY           SKY/WX    TMP DP  RH WIND       PRES   REMARKS
DURANGO        CLOUDY    37  24  59 W10       29.83S
CORTEZ         LGT RAIN  39  33  79 SW20      29.83R
PAGOSA SPRINGS LGT SNOW  31  29  93 SW10      29.85R VSB 1   WCI  23
TELLURIDE      FLURRIES  29  20  68 W8        29.79F WCI  21
WOLF CREEK PAS CLOUDY    14  14 100 S29G45    29.79S WCI  -7
$$

COZ009-010-012-014-032>034-037-058>063-280200-
...CENTRAL COLORADO...

CITY           SKY/WX    TMP DP  RH WIND       PRES   REMARKS
ASPEN          MIX PCPN  29  23  78 SE12      29.66R WCI  19
BUENA VISTA    CLOUDY    36   7  30 S12G24    29.66S
COPPER MTN     SNOW      19  10  68 MISG      29.63S VSB 1/2
BERTHOUD PASS  LGT SNOW  10   1  67 W26G41    29.58S WCI -11
COTTONWOOD PAS CLOUDY    30  10  43 W8G32     29.67R WCI  23
GUNNISON       FAIR      19  11  70 S3        29.73F
KREMMLING      LGT SNOW  34  28  80 W9        29.63R WCI  26
LEADVILLE      CLOUDY    21  13  71 S14G21    29.63R WCI   8
MONARCH PASS   CLOUDY    14   9  79 SW37G48   29.77F WCI  -9
SALIDA         CLOUDY    35  17  47 W9        29.78R WCI  27
SUNLIGHT       NOT AVBL
WILKERSON PASS FAIR      19   5  53 SW18G35   29.65R WCI   4
$$

COZ069>075-280200-
...SAN LUIS VALLEY/SANGRE DE CRISTO MOUNTAINS...

CITY           SKY/WX    TMP DP  RH WIND       PRES   REMARKS
ALAMOSA        FAIR      31  23  72 CALM      29.79F
LA VETA PASS   CLOUDY    23  18  80 S28G48    29.75S WCI   6
SAGUACHE       FAIR      36  12  38 W17G25    29.73R
$$

COZ035-036-038>040-280200-
...NORTHERN COLORADO FRONT RANGE...

CITY           SKY/WX    TMP DP  RH WIND       PRES   REMARKS
DENVER INTL AP MOCLDY    50   5  16 SW18G26   29.54R
DMNS CITY PARK   N/A     49   4  15 S7G18     29.55S
AURORA         NOT AVBL
FRONT RANGE AP MOCLDY    50   7  17 S15G23    29.56R
ERIE MUNI ARPT FAIR      48   7  19 W8        29.54S
BOULDER MUN AP FAIR      46  16  29 W12       29.54R
CENTENNIAL     MOCLDY    45   7  21 SW15G23   29.57R
BROOMFIELD     CLOUDY    45  12  26 W7        29.55R
FORT COLLINS   FAIR      47  16  29 W20G28    29.54R
LONGMONT       NOT AVBL
$$

COZ041-046-047-076>085-087-088-280200-
...PIKES PEAK/PALMER DIVIDE AND SOUTHERN FOOTHILLS...

CITY           SKY/WX    TMP DP  RH WIND       PRES   REMARKS
COLO. SPRINGS  MOCLDY    45   8  22 SW22G30   29.64R
A. F. ACADEMY  FAIR      45   1  16 W18G31    29.63R
SCHRIEVER AFB  FAIR      43   6  21 SW16G26   29.65R
ELLICOTT       FAIR     N/A N/A N/A SW13      29.63R
FALCON         FAIR      41   5  22 SW16G25   29.65R
FORT CARSON    FAIR      47   9  21 SW14G26   29.63R
LIMON          FAIR     N/A N/A N/A SW18G26   29.58R
MONUMENT HILL  FAIR      37   7  28 SW14G31   29.64R
TRINIDAD       FAIR      48  13  24 W26G32    29.73R
$$

COZ042>045-048>051-090-091-280200-
...NORTHEAST COLORADO...

CITY           SKY/WX    TMP DP  RH WIND       PRES   REMARKS
GREELEY ARPT   FAIR      45  15  30 W8        29.55R
AKRON          FAIR      48   9  20 SW12      29.51S
BURLINGTON     FAIR      55  12  18 SW20      29.57R
WRAY           NOT AVBL
STERLING       FAIR      45  23  42 N8        29.49S
HOLYOKE        FAIR      45  21  39 E12       29.51F
FORT MORGAN    FAIR      45  14  28 NW9       29.53R
$$

COZ086-089-092>099-280200-
...SOUTHEAST COLORADO...

CITY           SKY/WX    TMP DP  RH WIND       PRES   REMARKS
PUEBLO         FAIR      52  13  21 SW22G32   29.64R
LA JUNTA       FAIR      55  11  17 W23G32    29.66R
LAMAR          FAIR      59   7  12 W23G30    29.60R
SPRINGFIELD      N/A     56   5  13 W12       29.67R
$$




USA.gov is the U.S. government's official web portal to all federal, state and local government web resources and services.